Date,TemperatureHighF,TemperatureAvgF,TemperatureLowF,DewpointHighF,DewpointAvgF,DewpointLowF,HumidityHigh,HumidityAvg,HumidityLow,PressureMaxIn,PressureMinIn,WindSpeedMaxMPH,WindSpeedAvgMPH,GustSpeedMaxMPH,PrecipitationSumIn
2013-3-1,27,18,5,19,15,3,99,86,68,0.00,40.00,11,6,14,0.00
2013-3-2,26,12,-6,18,8,-8,97,85,67,0.00,40.00,11,5,14,0.00
2013-3-3,29,24,16,21,16,12,92,73,54,0.00,40.00,25,12,33,0.00
2013-3-4,25,23,22,25,22,16,100,97,72,0.00,40.00,22,14,29,0.01
2013-3-5,29,24,18,27,23,16,99,93,80,0.00,40.00,13,9,20,0.01
2013-3-6,31,20,5,21,16,1,100,88,58,0.00,40.00,9,4,12,0.00
2013-3-7,27,16,-3,21,13,-4,99,88,71,0.00,40.00,16,8,21,0.00
2013-3-8,34,25,14,32,23,14,100,91,71,0.00,40.00,12,7,15,0.00
2013-3-9,35,33,32,34,33,32,100,99,98,0.00,40.00,16,8,20,0.02
2013-3-10,32,26,24,32,24,21,99,90,85,0.00,40.00,21,13,25,0.01
2013-3-11,25,21,16,23,17,14,93,84,75,0.00,40.00,18,11,24,0.00
2013-3-12,24,19,12,18,16,10,92,86,76,0.00,40.00,24,13,32,0.00
2013-3-13,31,17,3,19,12,3,97,82,52,0.00,40.00,12,6,14,0.00
2013-3-14,46,31,21,32,26,19,99,83,49,0.00,40.00,15,5,19,0.00
2013-3-15,32,29,22,32,28,21,100,99,99,0.00,40.00,11,6,15,0.00
2013-3-16,21,13,2,21,10,-2,99,87,75,0.00,40.00,16,9,18,0.00
2013-3-17,25,12,-4,21,7,-6,93,81,71,0.00,40.00,23,12,34,0.00
2013-3-18,31,16,8,30,15,5,99,94,90,0.00,40.00,34,24,43,0.01
2013-3-19,14,8,1,7,1,-2,92,76,54,0.00,40.00,26,18,33,0.01
2013-3-20,15,7,-1,7,1,-4,86,76,65,0.00,40.00,23,17,29,0.00
2013-3-21,25,10,-5,12,3,-6,92,74,51,0.00,40.00,7,4,8,0.00
2013-3-22,40,17,0,19,10,0,97,76,39,0.00,40.00,7,4,9,0.00
2013-3-23,31,20,7,23,17,5,96,86,68,0.00,40.00,13,7,16,0.00
2013-3-24,32,26,18,28,24,18,100,92,78,0.00,40.00,16,10,20,0.00
2013-3-25,32,27,19,25,22,16,96,83,65,0.00,40.00,19,13,22,0.00
2013-3-26,34,22,9,23,17,9,99,85,64,0.00,40.00,12,5,14,0.00
2013-3-27,37,26,9,28,19,9,99,76,59,0.00,40.00,11,4,12,0.00
2013-3-28,39,31,19,30,25,18,96,81,69,0.00,40.00,13,7,17,0.00
2013-3-29,43,37,30,39,34,30,99,91,81,0.00,40.00,12,8,15,0.00
2013-3-30,40,36,32,39,36,32,99,99,98,0.00,40.00,24,10,27,0.00
2013-3-31,33,28,18,32,22,12,99,79,62,0.00,40.00,28,19,34,0.00